Regional Weather Roundup
Issued by NWS Grand Forks, ND

Home | Current Version | Previous Version | Graphics & Text | Print | Product List | Glossary On
Versions: 1 2 3 4 5 6 7 8 9 10 11 12 13 14 15 16 17 18 19 20 21 22 23 24 25 26 27 28 29 30 31 32 33 34 35 36 37 38 39 40 41 42 43 44 45 46 47 48 49 50
000
ASUS43 KFGF 170110
RWRFGF
PRAIRIE TO PINES  WEATHER ROUNDUP
NATIONAL WEATHER SERVICE EASTERN NORTH DAKOTA/GRAND FORKS ND
800 PM CDT TUE SEP 16 2014

 **SATELLITE DATA USED TO AUGMENT SKY COVER AT AUTOMATED STATIONS**
 *****  WEATHER ACROSS EASTERN NORTH DAKOTA  *****

CITY           SKY/WX    TMP DP  RH WIND       PRES   REMARKS
GRAND FORKS    PTCLDY    60  47  61 S6        29.91F
GRAND FRKS AFB CLEAR     59  46  61 SW3       29.92F
GRAND FRKS NWS   N/A     61 N/A N/A S3          N/A
DEVILS LAKE    CLEAR     63  45  51 S7        29.91S
FARGO          PTCLDY    60  46  59 SE9       29.94S
WAHPETON ARPT  PTCLDY    61  43  51 SE6       29.94F
$$

 ***** WEATHER ACROSS CENTRAL AND WESTERN NORTH DAKOTA  *****

CITY           SKY/WX    TMP DP  RH WIND       PRES   REMARKS
BISMARCK       CLEAR     66  46  48 NE5       29.91F
MINOT          CLEAR     65  44  46 NE3       29.91S
JAMESTOWN      CLEAR     57  50  77 N6        29.93S
MINOT AFB      CLEAR     62  48  61 NE2       29.90F
GARRISON         N/A     62  44  51 W5        29.92S
WILLISTON      CLEAR     65  39  38 SW3       29.91F
DICKINSON      CLEAR     61  46  57 NE6       29.92S
HETTINGER      PTCLDY    64  47  53 NE12      29.93S
$$

 *****  OTHER AIRPORT OBSERVATIONS IN OUR AREA  *****

CITY           SKY/WX    TMP DP  RH WIND       PRES   REMARKS
WALHALLA         N/A     59  46  63 CALM      29.90S
GRAFTON AIRPOR FAIR      61  43  51 S6        29.90S
VALLEY CITY AR FAIR      61  46  59 E7        29.93S
CANDO          FAIR      57  41  54 S3        29.92F
CAVALIER APRT  FAIR      63  46  55 CALM      29.90R
GWINNER        CLEAR     63  52  67 CALM      29.92F
SHEYENNE NWR     N/A     59  49  68 SE7       29.95S
ROLLA          FAIR      54  45  71 SW7       29.93S
 ***** THE ABOVE OBSERVATIONS ARE NON NWS ARE NOT QUALITY
       CONTROLLED AND MAY MIS-REPORT RAIN FOR SNOW...
$$

  *****  WEATHER ACROSS NORTHERN MINNESOTA  *****

CITY           SKY/WX    TMP DP  RH WIND       PRES   REMARKS
FLAG ISLAND    CLOUDY    57  52  82 S5        29.91F
WARROAD        CLOUDY    55  52  88 SE3       29.93S
ROSEAU         CLOUDY    57  52  82 CALM      29.92S
HALLOCK        CLEAR     61  48  63 E5        29.90S
THF RVR FALLS  CLEAR     57  43  58 S7        29.94R
BAUDETTE       CLOUDY    55  50  83 S3        29.93F
WASKISH        CLOUDY    57  52  82 CALM      29.94S
CROOKSTON      CLEAR     59  45  58 S7        29.94S
STEPHEN NDAWN    N/A     61  45  55 SW5         N/A
GREENBUSH NDAW   N/A     59  52  77 SE2         N/A
$$
  *****  WEATHER ACROSS CENTRAL AND WEST MINNESOTA  *****

CITY           SKY/WX    TMP DP  RH WIND       PRES   REMARKS
FOSSTON        CLEAR     54  41  62 S6        29.97S
BEMIDJI        CLEAR     59  44  56 SW3       29.97S
PARK RAPIDS    CLEAR     58  41  53 CALM      29.98S
ELBOW LAKE     FAIR      59  48  65 SE6       29.96F
WADENA         CLEAR     54  43  66 CALM      29.99S
DETROIT LAKES  CLEAR     59  45  58 SE5       29.98F
MOORHEAD       CLEAR     63  48  59 SE5       29.95S
FERGUS FALLS   PTCLDY    61  43  51 SE8       29.96S
MORRIS MN      CLOUDY    63  50  63 SE6       29.96F
STAPLES        CLEAR     54  45  71 CALM      30.00S
$$
  *****  WEATHER ELSEWHERE ACROSS MINNESOTA  *****

CITY           SKY/WX    TMP DP  RH WIND       PRES   REMARKS
DULUTH         PTCLDY    58  42  55 SW8       29.99R
INTRNTL FALLS  CLOUDY    53  51  93 CALM      29.94F
ELY            CLOUDY    54  48  82 CALM      29.97S
CLOQUET        CLEAR     57  41  54 SW6       29.99F
WHEATON        CLOUDY    61  50  67 SE7       29.96F
BRAINERD       CLEAR     51  45  79 CALM      30.00S
HIBBING        CLEAR     56  46  69 SW5       29.97S
ALEXANDRIA     CLOUDY    58  48  69 S6        29.99F
SAINT CLOUD    MOCLDY    57  48  72 SE5       30.00S
MINNEAPOLIS    PTCLDY    62  44  51 SE5       30.02S
$$

  *****  WEATHER ACROSS SOUTH DAKOTA  *****

CITY           SKY/WX    TMP DP  RH WIND       PRES   REMARKS
SIOUX FALLS    MOCLDY    64  50  60 S9        29.97F
BROOKINGS      NOT AVBL
WATERTOWN      CLOUDY    62  51  67 SE7       29.95S
HURON          PTCLDY    67  55  65 SE7       29.90S
SISSETON         N/A     64  51  62 S7        29.92F
ABERDEEN       CLEAR     59  55  87 CALM      29.91S
MITCHELL       PTCLDY    66  56  70 S10       29.92F
PIERRE         CLEAR     70  52  52 CALM      29.88S
MOBRIDGE       CLEAR     59  54  83 NE6       29.88F
RAPID CITY     CLEAR     71  48  43 CALM      29.95S
$$

  *****  SOME WEATHER IN NEARBY STATES *****

CITY           SKY/WX    TMP DP  RH WIND       PRES   REMARKS
GLASGOW MT     CLEAR     69  42  37 SE7       29.89S
GREAT FALLS MT CLOUDY    70  47  43 S5        29.90F
CHEYENNE WY    CLEAR     76  30  18 NW6       30.14S
SCOTTSBLUFF NE CLEAR     77  45  32 SE6       29.98S
OMAHA NE       MOCLDY    65  50  58 SE9       30.02F
DES MOINES IA  PTCLDY    62  49  62 SE7       30.05F
DAVENPORT IA   CLEAR     55  44  66 CALM      30.09F
CHICAGO IL     CLEAR     61  40  45 VRB6      30.10R
EAU CLAIRE WI  CLEAR     55  44  66 CALM      30.04F
LA CROSSE WI   CLEAR     56  48  74 E5        30.05F
$$

  *****  SOME NATIONAL WEATHER *****

CITY           SKY/WX    TMP DP  RH WIND       PRES   REMARKS
LA GUARDIA NY  MOCLDY    67  52  58 N6        30.00R
RALEIGH NC     LGT RAIN  71  66  84 NE3       29.98R
ATLANTA GA     PTCLDY    79  67  66 NW7       29.99R
NEW ORLEANS LA CLOUDY    76  74  93 NW3       29.99F
OKLAHOMA CITY  MOCLDY    81  70  69 E7        30.00S
ALBUQUERQUE NM CLOUDY    66  55  67 S8        30.22R
SALT LAKE CITY PTCLDY    90  37  15 CALM      29.95F
LOS ANGELES CA MOSUNNY   80  58  46 W5        29.72R
BOISE ID       CLEAR     91  41  17 N7        29.82F
SEATTLE WA     CLOUDY    69  54  58 SW6       29.89S
$$

*** WEATHER ACROSS MANITOBA...SASKATCHEWAN AND ONTARIO ***
                ***ONTARIO***

CITY           SKY/WX    TMP DP  RH WIND       PRES   REMARKS
GERALDTON      PTCLDY    36  30  80 NE3       30.03R
THUNDER BAY    MOCLDY    48  43  81 E7        30.01R
SIOUX LOOKOUT  CLOUDY    43  37  81 VRB2      29.99S
TORONTO        PTCLDY    55  43  62 W8        30.06R
BIG TROUT LK   CLOUDY    37  21  52 N5        30.05R
PICKLE LAKE    MOCLDY    37  25  60 E6        30.02S
DRYDEN         CLOUDY    46  39  76 E7        29.96
KENORA         CLOUDY    54  45  71 E3        29.94S
$$
                *** MANITOBA***

CITY           SKY/WX    TMP DP  RH WIND       PRES   REMARKS
BRANDON        PTCLDY    61  45  55 W5        29.90S
DAUPHIN        CLOUDY    52  48  87 E8        29.90S
ISLAND LAKE    MOCLDY    39  28  65 NW3       30.07S
PILOT MOUND      N/A     63  43  48 NE2         N/A
THE PAS        LGT RAIN  36  34  93 E10G17    30.05S
THOMPSON       PTCLDY    32  25  74 N6        30.10R
WINNIPEG       MOCLDY    55  48  76 N6        29.90F
CHURCHILL      HVY RAIN  34  27  75 NW17G26   30.07S WCI  23
GILLAM         MOCLDY    36  25  64 N16       30.10S
$$
                ***SASKATCHEWAN***

CITY           SKY/WX    TMP DP  RH WIND       PRES   REMARKS
ESTEVAN        PTCLDY    63  45  51 S3        29.90F
KINDERSLEY     PTCLDY    70  45  40 N6        29.86S
LLOYDMINSTER   MOCLDY    66  43  42 E6        29.85S
PRINCE ALBERT  MOCLDY    46  43  87 E17G25    29.93R
REGINA         PTCLDY    68  45  42 W5        29.88S
YORKTON        CLEAR     66  45  45 SW6       29.85F
N. BATTLEFORD  CLEAR     66  43  42 N9        29.87S
LA RONGE       CLOUDY    37  36  93 E10       30.05R
SASKATOON      MOCLDY    68  48  49 E10       29.87R
SWIFT CURRENT  CLEAR     70  41  35 NW5       29.87S
$$
NOTE: THESE ARE AUTOMATED STATIONS WITH LIMITED QUALITY CONTROL
      "FAIR" INDICATES FEW OR NO CLOUDS BELOW 12,000 FEET WITH NO
      SIGNIFICANT WEATHER AND/OR OBSTRUCTIONS TO VISIBILITY.
      SKY/WX - SKY CONDITION AND SIGNIFICANT WEATHER.
      TMP - AIR TEMPERATURE.    DP   - DEWPOINT TEMPERATURE.
      RH  - RELATIVE HUMIDITY.  PRES - PRESSURE.
      HX  - HEAT INDEX.         WCI  - WIND CHILL INDEX.
$


USA.gov is the U.S. government's official web portal to all federal, state and local government web resources and services.